Location: Newark
(47.5833°N, 8.1500°E)
Time: 17:53:23
(UTC+00:00)

Transit 2A - Pass Details

Date: 29 October 2020
Orbit: 595 x 964 km, 66.7° (Epoch: 29 November)

Event Time Altitude Azimuth Distance (km) Brightness Sun altitude
Rises 04:32:05 0° 304° (WNW) 3,622 - -16.5°
Exits shadow 04:35:29 - 324° (NW) 2,823 8.6 -16.0°
Reaches altitude 10° 04:36:44 10° 334° (NNW) 2,623 8.5 -15.8°
Maximum altitude 04:38:56 12° 355° (N) 2,451 8.5 -15.4°
Drops below altitude 10° 04:41:06 10° 17° (NNE) 2,550 8.9 -15.0°
Sets 04:45:26 0° 48° (NE) 3,396 10.0 -14.3°
